This demonstration page uses our WeatherBlox Daily Observations layout. Learn more.

39.92423, -83.80882

Hourly Observations for May 4, 2015

Temp ( °F °C ) Dew Point ( °F °C ) Humidity (%) Winds ( mph kmh ) Pressure ( in mb ) Visibility ( mi km ) Precip ( " mm )
12:56 am 00:56 Clear 63 17.2 47 8.3 56 56 S 6 9 30.09 1019 7 11.26538 0 0
1:56 am 01:56 Clear 62 16.6 47 8.3 58 58 SSW 5 7 30.1 1019 7 11.26538 0 0
2:56 am 02:56 Clear 62 16.6 47 8.3 58 58 S 6 9 30.1 1019 7 11.26538 0 0
3:56 am 03:56 Clear 60 15.5 47 8.3 62 62 S 6 9 30.11 1020 7 11.26538 0 0
4:56 am 04:56 Clear 61 16.1 48 8.8 62 62 S 7 11 30.11 1020 8 12.87472 0 0
5:56 am 05:56 Clear 60 15.5 48 8.8 65 65 S 7 11 30.11 1020 7 11.26538 0 0
6:56 am 06:56 Hazy 59 15 48 8.8 67 67 S 6 9 30.13 1020 6 9.65604 0 0
7:56 am 07:56 Hazy 63 17.2 50 10 63 63 SSW 9 15 30.14 1021 6 9.65604 0 0
8:56 am 08:56 Hazy 66 18.8 51 10.5 59 59 SW 10 17 30.16 1021 6 9.65604 0 0
9:56 am 09:56 Hazy 71 21.6 52 11.1 51 51 SW 13 20 30.16 1021 6 9.65604 0 0
10:56 am 10:56 Hazy 76 24.4 53 11.6 45 45 SW 18 30 30.16 1022 6 9.65604 0 0
11:56 am 11:56 Hazy 77 25 53 11.6 43 43 WSW 17 28 30.18 1022 6 9.65604 0 0
12:56 pm 12:56 Hazy 79 26.1 55 12.7 43 43 SW 17 28 30.17 1022 6 9.65604 0 0
1:56 pm 13:56 Hazy 78 25.5 55 12.7 45 45 W 16 26 30.17 1022 5 8.0467 0 0
2:56 pm 14:56 Hazy 77 25 55 12.7 46 46 WSW 12 19 30.16 1022 6 9.65604 0 0
3:56 pm 15:56 Mostly Cloudy with Haze 73 22.7 57 13.8 57 57 WSW 12 19 30.17 1022 5 8.0467 0 0.0254
4:56 pm 16:56 Hazy 72 22.2 58 14.4 61 61 SSW 7 11 30.16 1022 6 9.65604 0 0.0254
5:56 pm 17:56 Hazy 77 25 59 15 54 54 SW 8 13 30.16 1021 6 9.65604 0 0
6:56 pm 18:56 Mostly Cloudy with Haze 75 23.8 57 13.8 54 54 SW 12 19 30.16 1022 6 9.65604 0 0
7:56 pm 19:56 Mostly Cloudy with Haze 73 22.7 58 14.4 60 60 WSW 7 11 30.18 1022 6 9.65604 0 0
8:56 pm 20:56 Clear 71 21.6 57 13.8 61 61 SW 5 7 30.18 1022 7 11.26538 0 0
9:56 pm 21:56 Partly Cloudy 67 19.4 57 13.8 70 70 Calm 30.19 1022 7 11.26538 0 0
10:56 pm 22:56 Mostly Cloudy with Light Rain 63 17.2 58 14.4 84 84 NNE 6 9 30.2 1023 5 8.0467 0 0.0254
11:56 pm 23:56 Mostly Cloudy with Mist and Fog 64 17.7 60 15.5 87 87 E 3 6 30.2 1023 6 9.65604 0 0.0254

Powered by AerisWeather